Location: Homewood
(41.1836°S, 175.9581°E)
Time: 11:04:16
(UTC+00:00)

Okean 3 - Pass Details

Date: 18 April 2024
Orbit: 561 x 584 km, 82.5° (Epoch: 24 May)

Event Time Altitude Azimuth Distance (km) Brightness Sun altitude
Rises 17:04:14 0° 194° (SSW) 2,849 6.9 -20.7°
Enters shadow 17:05:58 - 197° (SSW) 2,152 6.2 -20.4°
Exits shadow 17:09:59 44° 242° (WSW) 824 3.8 -19.6°
Maximum altitude 17:10:39 49° 273° (W) 771 3.6 -19.5°
Drops below altitude 10° 17:14:45 10° 348° (NNW) 1,918 5.9 -18.7°
Sets 17:16:58 0° 353° (N) 2,809 6.9 -18.3°
